Location: Unspecified
(0.0000°N, 0.0000°E)
Time: 05:56:51
(UTC+00:00)

Transit 2A Rocket - Visible Passes

Search period start: 30 September 2014 00:00
Search period end: 10 October 2014 00:00
Orbit: 593 x 916 km, 66.7° (Epoch: 28 September)

Date Brightness Start Highest point End Pass type
(mag) Time Alt. Az. Time Alt. Az. Time Alt. Az.
07 Oct 6.5 19:43:08 10° SSW 19:44:41 21° SSW 19:44:41 21° SSW visible
08 Oct 5.3 19:01:54 10° S 19:05:16 32° SE 19:05:16 32° SE visible
09 Oct 6.2 18:21:41 10° SSE 18:24:16 15° ESE 18:25:59 13° E visible
09 Oct 6.9 20:03:20 10° WSW 20:06:03 20° W 20:06:03 20° W visible
